STARLETTE 1 7646U 75010A 23340.97868177 -.00000126 00000-0 11051-4 0 9993 2 7646 49.8228 148.6043 0205760 253.2477 104.5748 13.82322978466813 LAGEOS 1 1 8820U 76039A 23341.19491066 -.00000005 00000-0 00000+0 0 9997 2 8820 109.8211 223.1640 0044658 140.4483 16.7998 6.38664881854604 EGS (AJISAI) 1 16908U 86061A 23340.94051726 -.00000113 00000-0 -10823-3 0 9995 2 16908 50.0090 106.3267 0011173 351.2030 156.7809 12.44503115365424 LAGEOS 2 1 22195U 92070B 23340.85185635 -.00000009 00000-0 00000-0 0 9990 2 22195 52.6399 130.1656 0138336 143.1446 13.8671 6.47294161735645 STELLA 1 22824U 93061B 23340.91152315 -.00000029 00000-0 68953-5 0 9994 2 22824 98.9081 18.8948 0007116 45.9557 57.7174 14.27414268573053 LARES 1 38077U 12006A 23340.38289697 -.00000046 00000-0 -45025-4 0 9990 2 38077 69.4928 70.1853 0009886 208.3953 151.6536 12.54931330541165